International Virtual Aviation Organisation

Russian Federation and Kazakhstan MCD

 

Карточка аэропорта UNNT

Внимание!
Информация на этой странице в стадии наполнения.
Если вы не увидели какой-то информации, или заметили неточность - пожалуйста сообщите нам!
Спасибо!
Команда RU-STAFF
Название аэропортаТолмачево
Название аэропорта (англ.)Tolmachevo
Превышение367 ft. (111.9 m.)
Координаты55°0.77999999999989', 82°38.178'
Высота перехода1300m
Эшелон переходаFL060
Коды ответчика5201-5277
Зона ОрВДНовосибирск РПИ (UNNT)
Данные METARUNNT 091400Z 05003MPS CAVOK 25/17 Q1003 R07/090070 R16/090070 NOSIG RMK QFE742/0990
Проноз погоды (TAF)UNNT 091400Z 0915/1015 08003G08MPS 8000 NSC TEMPO 0918/1002 0500 FG BECMG 1002/1003 9999 PROB40 TEMPO 1009/1015 16005G13MPS -TSRA BKN040CB
NOTAMshow/hide NOTAM
AWOS   TABLE

Информация о ВПП

ВПП Длина ВПП (м.) Покрытие Курс ВПП Частота ILS
073597Асфальтобетон72110.1
253597Асфальтобетон252108.5
163602Цементобетон161109.7
343602Цементобетон341111.1

Диспетчерские позиции

Позывной Наименование органа УВД Частота
UNNT_GNDНовосибирск Руление121.7
UNNT_TWRНовосибирск Вышка118.5
UNNT_R_APPНовосибирск Круг122.0
UNNT_APPНовосибирск Подход127.5



Спутниковое изображение